DLH3714 EDDF-TFFF

Flight info

Callsign DLH3714
Flight time N/A
Altitude 30000
Route SOBRA2L/18 SOBRA Y180 DIK UN857 TOLVU/N0490F290 DCT RAPOR DCT GIMER DCT ESTOC DCT PON DCT DITAL/N0488F300 DCT LGL DCT GALBO DCT EKRAS DCT UPALO/N0488F290 DCT FEJAC DCT TIQUH/N0486F310 DCT REGHI/M083F300 UN480 ETIKI DCT 47N015W 46N020W 4230N03000W/M083F320 38N040W/M083F340 36N045W 33N050W 27N055W DCT CITRS/N0493F340 DCT 16N060W DCT FOF
Aircraft MD11/H-SDE1E2E3FGHIJ2J3J4J5M1RWXY/LB1D1

Departure

Time 2026-04-15 11:14
Airport Frankfurt Main Airport (EDDF)

Arrival

Time N/A
Airport Martinique Aimé Césaire International Airport (TFFF)
Time Latitude Longitude Altitude Speed Heading
2026-04-15 10:33 50.04703 8.56157 373 ft 0 kts 339°
2026-04-15 10:58 50.04700 8.56159 390 ft 2 kts 339°
2026-04-15 10:58 50.04682 8.56169 393 ft 3 kts 339°
2026-04-15 10:58 50.04663 8.56180 364 ft 3 kts 339°
2026-04-15 10:58 50.04645 8.56190 369 ft 3 kts 334°
2026-04-15 10:59 50.04630 8.56203 367 ft 3 kts 306°
2026-04-15 10:59 50.04622 8.56224 367 ft 3 kts 274°
2026-04-15 10:59 50.04623 8.56251 369 ft 2 kts 251°
2026-04-15 10:59 50.04627 8.56268 367 ft 2 kts 249°
2026-04-15 11:00 50.04633 8.56297 369 ft 3 kts 249°
2026-04-15 11:00 50.04640 8.56326 368 ft 3 kts 249°
2026-04-15 11:00 50.04647 8.56356 370 ft 3 kts 249°
2026-04-15 11:00 50.04654 8.56385 367 ft 2 kts 249°
2026-04-15 11:01 50.04656 8.56394 367 ft 1 kts 249°
2026-04-15 11:04 50.04656 8.56392 367 ft 1 kts 251°
2026-04-15 11:04 50.04649 8.56364 371 ft 5 kts 251°
2026-04-15 11:05 50.04634 8.56298 369 ft 8 kts 250°
2026-04-15 11:05 50.04610 8.56194 372 ft 12 kts 249°
2026-04-15 11:05 50.04585 8.56092 373 ft 11 kts 249°
2026-04-15 11:05 50.04556 8.55991 372 ft 10 kts 235°
2026-04-15 11:06 50.04502 8.55945 373 ft 9 kts 197°
2026-04-15 11:06 50.04440 8.55915 369 ft 10 kts 197°
2026-04-15 11:06 50.04363 8.55916 371 ft 12 kts 161°
2026-04-15 11:06 50.04276 8.55951 373 ft 13 kts 181°
2026-04-15 11:07 50.04183 8.55923 368 ft 14 kts 169°
2026-04-15 11:07 50.04103 8.55965 369 ft 10 kts 161°
2026-04-15 11:07 50.04049 8.55955 366 ft 6 kts 224°
2026-04-15 11:07 50.04035 8.55894 371 ft 7 kts 251°
2026-04-15 11:08 50.04016 8.55812 370 ft 9 kts 249°
2026-04-15 11:08 50.03990 8.55704 368 ft 12 kts 249°
2026-04-15 11:08 50.03959 8.55572 370 ft 14 kts 250°
2026-04-15 11:08 50.03922 8.55419 368 ft 16 kts 250°
2026-04-15 11:09 50.03881 8.55248 369 ft 17 kts 250°
2026-04-15 11:09 50.03841 8.55079 366 ft 17 kts 249°
2026-04-15 11:09 50.03800 8.54911 370 ft 19 kts 250°
2026-04-15 11:09 50.03754 8.54714 368 ft 20 kts 249°
2026-04-15 11:10 50.03703 8.54502 370 ft 22 kts 249°
2026-04-15 11:10 50.03653 8.54293 367 ft 23 kts 249°
2026-04-15 11:10 50.03596 8.54058 369 ft 23 kts 250°
2026-04-15 11:10 50.03545 8.53841 370 ft 20 kts 250°
2026-04-15 11:11 50.03500 8.53652 367 ft 17 kts 249°
2026-04-15 11:11 50.03460 8.53490 368 ft 16 kts 249°
2026-04-15 11:11 50.03421 8.53324 369 ft 17 kts 250°
2026-04-15 11:11 50.03378 8.53143 369 ft 18 kts 249°
2026-04-15 11:12 50.03333 8.52954 373 ft 19 kts 249°
2026-04-15 11:12 50.03287 8.52765 370 ft 17 kts 249°
2026-04-15 11:12 50.03239 8.52615 370 ft 14 kts 221°
2026-04-15 11:12 50.03174 8.52595 370 ft 10 kts 180°
2026-04-15 11:13 50.03032 8.52597 371 ft 45 kts 179°
2026-04-15 11:13 50.02455 8.52603 370 ft 118 kts 179°
2026-04-15 11:13 50.01427 8.52613 372 ft 174 kts 179°
2026-04-15 11:13 50.00155 8.52637 718 ft 183 kts 179°
2026-04-15 11:14 49.98879 8.52670 1495 ft 189 kts 177°
2026-04-15 11:14 49.97527 8.52749 2086 ft 195 kts 178°
2026-04-15 11:14 49.96168 8.52847 2547 ft 199 kts 176°
2026-04-15 11:14 49.94787 8.52951 3006 ft 200 kts 176°
2026-04-15 11:15 49.93379 8.53056 3431 ft 203 kts 176°
2026-04-15 11:15 49.91891 8.53169 3632 ft 228 kts 176°
2026-04-15 11:15 49.90269 8.53294 4179 ft 236 kts 176°
2026-04-15 11:15 49.88622 8.53415 4878 ft 239 kts 177°
2026-04-15 11:16 49.86960 8.53124 5354 ft 245 kts 195°
2026-04-15 11:16 49.85270 8.52306 5506 ft 265 kts 199°
2026-04-15 11:16 49.83473 8.51313 5653 ft 283 kts 200°
2026-04-15 11:16 49.81549 8.50220 5858 ft 303 kts 201°
2026-04-15 11:17 49.79635 8.48824 6622 ft 306 kts 212°
2026-04-15 11:17 49.77994 8.46769 7431 ft 305 kts 229°
2026-04-15 11:17 49.76832 8.44034 8214 ft 305 kts 247°
2026-04-15 11:17 49.76297 8.40867 8928 ft 306 kts 265°
2026-04-15 11:18 49.76397 8.37743 9598 ft 309 kts 279°
2026-04-15 11:18 49.76839 8.34648 10241 ft 313 kts 283°
2026-04-15 11:18 49.77414 8.31302 10478 ft 332 kts 284°
2026-04-15 11:18 49.78039 8.27743 10662 ft 351 kts 284°
2026-04-15 11:19 49.78671 8.24072 11264 ft 355 kts 284°
2026-04-15 11:19 49.79294 8.20356 11907 ft 358 kts 283°
2026-04-15 11:19 49.79814 8.17200 12449 ft 360 kts 283°
2026-04-15 11:19 49.80438 8.13362 13081 ft 363 kts 283°
2026-04-15 11:20 49.81051 8.09548 13695 ft 367 kts 283°
2026-04-15 11:20 49.81667 8.05700 14291 ft 369 kts 283°